Weather History for Burns, OR

Change the Weather History Date:

Sunday, April 21, 2013

  Actual Average Record
Temperature  
Mean Temperature 46 °F 44 °F  
Max Temperature 64 °F 58 °F 83 °F (2009)
Min Temperature 27 °F 30 °F 11 °F (2008)
Degree Days  
Heating Degree Days 19 21  
Month to date heating degree days 475 479  
Since 1 July heating degree days 6664 6864  
Cooling Degree Days 0 0  
Month to date cooling degree days 0 0  
Year to date cooling degree days 0 0  
Moisture  
Dew Point 28 °F    
Average Humidity 56    
Maximum Humidity 85    
Minimum Humidity 27    
Precipitation  
Precipitation 0.00 in 0.03 in 0.36 in (2003)
Month to date precipitation 0.39 0.65  
Year to date precipitation 1.31 3.95  
Sea Level Pressure  
Sea Level Pressure 30.12 in    
Wind  
Wind Speed 11 mph (WSW)    
Max Wind Speed 29 mph    
Max Gust Speed 37 mph    
Visibility 10 miles    
Events      
T = Trace of Precipitation, MM = Missing Value Source: NWS Daily Summary

Daily Weather History Graph

Daily Weather History Graph

Search for Another Location

Airport:

Trip Planner

Search our weather history database for the weather conditions in past years. The results will help you decide how hot, cold, wet, or windy it might be!

Date:

Astronomy

Apr. 21, 2013 Rise Set
Actual Time 6:02 AM PDT 7:46 PM PDT
Civil Twilight 5:32 AM PDT 8:17 PM PDT
Nautical Twilight 4:55 AM PDT 8:54 PM PDT
Astronomical Twilight 4:15 AM PDT 9:34 PM PDT
Moon 3:29 PM PDT (4/21) 3:35 AM PDT (4/21)
Length of Visible Light 14h 44m
Length of Day
13h 43m
Waxing Gibbous, 81% of the Moon is Illuminated
Apr 21
Waxing Gibbous
Apr 25
Full
May 2
Last Quarter
May 9
New
May 17
First Quarter

Hourly Weather History & Observations

Time (PDT) Temp. Windchill Dew Point Humidity Pressure Visibility Wind Dir Wind Speed Gust Speed Precip Events Conditions
12:53 AM 34.0 °F 31.0 °F 26.1 °F 73% 30.17 in 10.0 mi West 3.5 mph - N/A   Clear
1:53 AM 30.9 °F - 25.0 °F 79% 30.17 in 10.0 mi Calm Calm - N/A   Clear
2:53 AM 34.0 °F 31.0 °F 26.1 °F 73% 30.15 in 10.0 mi NW 3.5 mph - N/A   Mostly Cloudy
3:53 AM 32.0 °F 26.4 °F 26.1 °F 79% 30.15 in 10.0 mi SSW 5.8 mph - N/A   Partly Cloudy
4:53 AM 30.9 °F 23.5 °F 26.1 °F 82% 30.16 in 10.0 mi West 8.1 mph - N/A   Clear
5:53 AM 28.0 °F 20.8 °F 23.0 °F 81% 30.17 in 10.0 mi West 6.9 mph - N/A   Clear
6:53 AM 28.9 °F - 24.1 °F 82% 30.19 in 10.0 mi Calm Calm - N/A   Scattered Clouds
7:53 AM 39.0 °F - 28.0 °F 65% 30.19 in 10.0 mi Calm Calm - N/A   Clear
8:53 AM 44.1 °F 42.5 °F 28.0 °F 53% 30.19 in 10.0 mi SSE 3.5 mph - N/A   Clear
9:53 AM 50.0 °F - 28.0 °F 43% 30.16 in 10.0 mi West 3.5 mph - N/A   Clear
10:53 AM 55.0 °F - 27.0 °F 34% 30.13 in 10.0 mi South 8.1 mph - N/A   Partly Cloudy
11:53 AM 59.0 °F - 26.1 °F 28% 30.11 in 10.0 mi WSW 16.1 mph 21.9 mph N/A   Clear
12:53 PM 61.0 °F - 27.0 °F 27% 30.09 in 10.0 mi WSW 20.7 mph 25.3 mph N/A   Clear
1:53 PM 62.1 °F - 30.0 °F 30% 30.08 in 10.0 mi WSW 13.8 mph 24.2 mph N/A   Partly Cloudy
2:53 PM 60.1 °F - 30.0 °F 32% 30.07 in 10.0 mi West 18.4 mph 25.3 mph N/A   Mostly Cloudy
3:53 PM 62.1 °F - 30.0 °F 30% 30.06 in 10.0 mi West 20.7 mph 29.9 mph N/A   Mostly Cloudy
4:53 PM 62.1 °F - 28.9 °F 29% 30.05 in 10.0 mi West 23.0 mph 34.5 mph N/A   Scattered Clouds
5:53 PM 60.1 °F - 27.0 °F 28% 30.06 in 10.0 mi WSW 25.3 mph 29.9 mph N/A   Clear
6:53 PM 55.9 °F - 28.0 °F 34% 30.08 in 10.0 mi West 23.0 mph 31.1 mph N/A   Clear
7:53 PM 51.1 °F - 28.0 °F 41% 30.08 in 10.0 mi WSW 11.5 mph 21.9 mph N/A   Clear
8:53 PM 46.0 °F 41.4 °F 30.0 °F 54% 30.10 in 10.0 mi West 9.2 mph - N/A   Clear
9:53 PM 43.0 °F 37.7 °F 30.0 °F 60% 30.12 in 10.0 mi West 9.2 mph - N/A   Clear
10:53 PM 39.0 °F 32.8 °F 30.9 °F 73% 30.12 in 10.0 mi SW 9.2 mph - N/A   Clear
11:53 PM 42.1 °F 37.7 °F 33.1 °F 70% 30.12 in 10.0 mi West 6.9 mph - N/A   Overcast